C/2017 T2 ( PanSTARRS )

Japanese version
Home page
Updated on October 22, 2018

---------------------------------------------------------------------

* Profile

Discovery Date October 2, 2017
Magnitude 19.9 mag
Discoverer Pan-STARRS 1 telescope (Haleakala)

* Pictures

* Orbital Elements

Epoch 2020 Apr. 21.0 TT = JDT 2458960.5
T 2020 May 4.95999 TT                                   MPCW
q   1.6151310            (2000.0)            P               Q
z  +0.0002290      Peri.   92.99433     -0.50994502     -0.40635900
 +/-0.0000056      Node    64.37735     -0.16278229     -0.81987447
e   0.9996301      Incl.   57.23142     +0.84466444     -0.40333388
From 182 observations 2017 Sept. 15-2018 Sept. 19, mean residual 0".3.

* Finding Charts

* Magnitudes Graph

        m1 = 4.5 + 5 log d + 10.0 log r

---------------------------------------------------------------------

The orbital elements are published on M.P.E.C. 2018-S50.
The charts are made with StellaNavigator Ver.10 (AstroArts).
The magnitudes graphs are made with Comet for Windows.

---------------------------------------------------------------------

Copyright(C) Seiichi Yoshida (comet@aerith.net). All rights reserved.